Orbital Elements at Epoch 2459200.5 (2020-Dec-17.0) TDB
Reference: JPL 29 (heliocentric ecliptic J2000)
Element | Value | Uncertainty (1-sigma) | Units |
e | .1688005333563943 | 3.2935e-08 | |
a | 2.29724062426597 | 6.2009e-09 | au |
q | 1.909465181641898 | 7.5068e-08 | au |
i | 4.212302129410209 | 3.1335e-06 | deg |
node | 329.9740611911556 | 5.1308e-05 | deg |
peri | 18.16607023481321 | 5.2484e-05 | deg |
M | 56.70405536496333 | 1.1654e-05 | deg |
tp | 2459000.182091289154 (2020-May-30.68209129) | 4.1085e-05 | TDB |
period | 1271.768776884747 3.48 | 5.1493e-06 1.41e-08 | d yr |
n | .2830703242155666 | 1.1461e-09 | deg/d |
Q | 2.685016066890041 | 7.2477e-09 | au |
|
| | Orbit Determination Parameters
Additional Information
|